Waarnemingen

Advertentie
Mijn weer
Baltasound, Groot Brittannië (3002): temperatuur & dauwpunt: 12.02.2019 18:00:00 - 18.02.2019 18:00:00 (GMT)Baltasound, Groot Brittannië (3002): temperatuur -20cm: 12.02.2019 18:00:00 - 18.02.2019 18:00:00 (GMT)Baltasound, Groot Brittannië (3002): windsnelheid & windstoten: 12.02.2019 18:00:00 - 18.02.2019 18:00:00 (GMT)Baltasound, Groot Brittannië (3002): windrichting: 12.02.2019 18:00:00 - 18.02.2019 18:00:00 (GMT)Baltasound, Groot Brittannië (3002): luchtdruk: 12.02.2019 18:00:00 - 18.02.2019 18:00:00 (GMT)Baltasound, Groot Brittannië (3002): zicht: 12.02.2019 18:00:00 - 18.02.2019 18:00:00 (GMT)Baltasound, Groot Brittannië (3002): neerslag: 12.02.2019 18:00:00 - 18.02.2019 18:00:00 (GMT)
Datum & Tijd tt [°C] td [°C] tt -20cm [°C] ff [km/u] ff [kn] fx [km/u] fx [kn] dd ppp [hPa] vv [km] rr [mm]
18.02.2019 18:00:00 7,4 5,0 - 41 22 57 31 Z 988,8 21 0,0
18.02.2019 17:00:00 7,2 4,6 - 37 20 54 29 Z 989,9 20 0,0
18.02.2019 16:00:00 7,4 4,0 - 37 20 54 29 ZZW 990,8 18 0,0
18.02.2019 15:00:00 7,9 4,3 - 35 19 52 28 ZZW 991,7 23 0,0
18.02.2019 14:00:00 8,4 4,5 - 37 20 54 29 Z 992,4 30 0,0
18.02.2019 13:00:00 8,3 4,4 - 34 18 54 29 ZZW 993,2 25 0,0
18.02.2019 12:00:00 8,6 5,0 - 39 21 50 27 ZZW 994,0 24 0,0
18.02.2019 11:00:00 8,3 5,6 - 35 19 48 26 ZZW 994,3 17 0,0
18.02.2019 10:00:00 7,6 5,5 - 29 16 - - ZZW 994,9 16 0,0
18.02.2019 09:00:00 6,9 4,9 5,2 31 17 46 25 ZZW 994,9 15 0,0
18.02.2019 08:00:00 6,6 4,9 - 31 17 52 28 ZZW 994,8 13 0,0
18.02.2019 07:00:00 6,8 5,5 - 35 19 52 28 Z 994,9 10 0,0
18.02.2019 06:00:00 6,9 5,5 - 39 21 52 28 Z 995,1 10 0,0
18.02.2019 05:00:00 6,9 5,4 - 37 20 48 26 Z 995,5 10 0,0
18.02.2019 04:00:00 7,1 5,5 - 34 18 46 25 Z 996,2 10 0,0
18.02.2019 03:00:00 6,8 5,2 - 29 16 - - Z 997,3 12 0,0
18.02.2019 02:00:00 6,8 5,3 - 26 14 - - Z 998,1 13 0,0
18.02.2019 01:00:00 6,3 4,7 - 24 13 - - Z 998,9 15 0,0
18.02.2019 00:00:00 6,3 4,1 - 29 16 - - Z 999,1 21 0,0
17.02.2019 23:00:00 6,2 4,7 - 24 13 - - Z 999,2 20 0,0
17.02.2019 22:00:00 6,1 4,6 - 26 14 - - Z 999,3 20 0,0
17.02.2019 21:00:00 6,4 4,8 - 28 15 - - ZZW 998,9 17 0,0
17.02.2019 20:00:00 7,0 5,0 - 26 14 57 31 ZZW 998,2 40 0,0
17.02.2019 19:00:00 8,3 6,9 - 44 24 65 35 ZZW 997,8 11 0,2
17.02.2019 18:00:00 7,9 6,7 - 41 22 54 29 Z 997,1 7 0,0
17.02.2019 17:00:00 8,2 6,5 - 39 21 52 28 Z 997,5 9 0,0
17.02.2019 16:00:00 8,4 6,5 - 35 19 50 27 Z 998,1 9 0,0
17.02.2019 15:00:00 8,9 7,0 - 34 18 55 30 ZZO 999,2 9 0,0
17.02.2019 14:00:00 9,1 7,4 - 41 22 59 32 Z 999,9 9 0,0
17.02.2019 13:00:00 9,6 7,7 - 41 22 55 30 Z 1000,8 10 0,0
17.02.2019 12:00:00 9,7 7,7 - 34 18 48 26 Z 1001,4 9 -
17.02.2019 11:00:00 8,7 7,6 - 22 12 - - Z 1002,0 9 0,0
17.02.2019 10:00:00 8,6 7,6 - 31 17 - - Z 1002,3 9 0,0
17.02.2019 09:00:00 8,1 7,3 5,0 26 14 - - Z 1003,0 9 0,0
17.02.2019 08:00:00 7,8 6,8 - 28 15 - - Z 1003,4 12 0,0
17.02.2019 07:00:00 7,6 6,5 - 28 15 - - Z 1003,9 11 0,0
17.02.2019 06:00:00 7,7 6,7 - 24 13 - - ZZO 1004,4 10 0,0
17.02.2019 05:00:00 7,6 6,8 - 28 15 - - ZZO 1005,3 12 0,0
17.02.2019 04:00:00 7,5 7,0 - 28 15 - - ZZO 1006,1 11 0,0
17.02.2019 03:00:00 7,5 7,0 - 28 15 - - ZO 1007,0 10 0,0
17.02.2019 02:00:00 7,4 6,9 - 31 17 - - ZO 1007,7 10 0,0
17.02.2019 01:00:00 7,4 6,9 - 29 16 - - ZO 1008,7 11 0,0
17.02.2019 00:00:00 7,1 6,6 - 35 19 - - ZO 1009,5 10 0,0
16.02.2019 23:00:00 6,8 6,1 - 35 19 48 26 ZO 1010,2 8 0,0
16.02.2019 22:00:00 6,7 5,4 - 37 20 46 25 ZO 1010,4 17 0,0
16.02.2019 21:00:00 6,6 4,7 - 34 18 - - ZO 1011,2 15 0,0
16.02.2019 20:00:00 6,4 3,6 - 34 18 - - ZO 1011,5 21 0,0
16.02.2019 19:00:00 6,2 3,7 - 29 16 - - ZO 1011,5 28 0,0
16.02.2019 18:00:00 6,1 3,2 - 24 13 - - OZO 1011,7 30 0,0
16.02.2019 17:00:00 5,8 2,9 - 24 13 - - OZO 1012,0 30 0,0
16.02.2019 16:00:00 6,2 3,1 - 16 9 - - ZO 1012,5 35 0,0
16.02.2019 15:00:00 6,9 2,1 - 16 9 - - OZO 1013,0 27 0,0
16.02.2019 14:00:00 7,0 2,2 - 21 11 - - O 1012,2 30 0,0
16.02.2019 13:00:00 6,9 2,3 - 16 9 - - O 1012,4 40 0,0
16.02.2019 12:00:00 7,0 2,3 - 13 7 - - O 1012,1 45 0,0
16.02.2019 11:00:00 7,1 3,5 - 11 6 - - O 1011,6 30 0,0
16.02.2019 10:00:00 4,3 2,6 - 4 2 - - WZW 1011,1 30 0,0
16.02.2019 09:00:00 3,2 2,0 5,0 2 1 - - NW 1009,8 26 0,0
16.02.2019 08:00:00 2,0 0,7 - 2 1 - - WNW 1009,3 17 0,0
16.02.2019 07:00:00 3,3 1,8 - 9 5 - - NNO 1008,3 23 0,0
16.02.2019 06:00:00 4,4 2,3 - 15 8 - - N 1008,0 26 0,0
16.02.2019 05:00:00 5,6 3,9 - 11 6 - - NO 1007,1 15 0,0
16.02.2019 04:00:00 5,2 3,7 - 4 2 - - O 1006,5 23 0,0
16.02.2019 03:00:00 5,5 4,2 - 9 5 - - O 1006,6 14 1,8
16.02.2019 02:00:00 5,3 3,3 - 2 1 - - Z 1007,1 16 1,4
16.02.2019 01:00:00 5,7 4,6 - 5 3 - - N 1007,2 8 0,2
16.02.2019 00:00:00 6,1 4,6 - 8 4 - - NNW 1006,9 14 0,0
15.02.2019 23:00:00 6,8 5,6 - 15 8 - - WNW 1007,1 8 0,2
15.02.2019 22:00:00 7,5 6,9 - 24 13 52 28 W 1006,8 4,6 2,4
15.02.2019 21:00:00 9,1 8,0 - 41 22 55 30 ZW 1006,1 3,1 0,4
15.02.2019 20:00:00 9,5 7,3 - 37 20 55 30 ZW 1005,8 17 0,0
15.02.2019 19:00:00 9,7 6,0 - 37 20 50 27 ZZW 1005,6 22 0,0
15.02.2019 18:00:00 9,1 5,3 - 29 16 - - ZZW 1005,5 22 0,0
15.02.2019 17:00:00 8,1 3,5 - 34 18 50 27 ZZW 1006,1 26 0,0
15.02.2019 16:00:00 8,4 2,6 - 39 21 57 31 ZZW 1006,3 40 0,0
15.02.2019 15:00:00 8,7 3,0 - 41 22 54 29 ZZW 1006,4 35 0,0
15.02.2019 14:00:00 9,4 4,0 - 37 20 48 26 ZZW 1007,6 22 0,0
15.02.2019 13:00:00 9,6 5,8 - 26 14 - - ZZW 1008,9 20 0,0
15.02.2019 12:00:00 8,8 5,2 - 22 12 - - Z 1009,8 23 0,0
15.02.2019 11:00:00 9,1 5,8 - 31 17 46 25 Z 1010,7 19 0,0
15.02.2019 10:00:00 7,3 5,6 - 31 17 - - Z 1011,5 14 0,0
15.02.2019 09:00:00 6,6 5,4 4,7 21 11 - - Z 1012,4 12 0,0
15.02.2019 08:00:00 6,6 5,4 - 22 12 - - ZZW 1012,7 12 0,0
15.02.2019 07:00:00 6,3 5,1 - 18 10 - - Z 1013,6 16 0,0
15.02.2019 06:00:00 7,0 5,1 - 16 9 - - ZW 1014,0 18 0,0
15.02.2019 05:00:00 7,7 4,7 - 16 9 - - ZZW 1014,6 30 0,0
15.02.2019 04:00:00 8,4 5,8 - 22 12 - - ZZW 1015,1 18 0,0
15.02.2019 03:00:00 7,6 6,4 - 24 13 - - ZZW 1015,9 15 0,0
15.02.2019 02:00:00 7,7 6,7 - 28 15 - - Z 1016,4 14 0,0
15.02.2019 01:00:00 8,0 6,9 - 24 13 - - Z 1017,0 18 0,0
15.02.2019 00:00:00 8,2 7,1 - 18 10 - - ZW 1017,6 30 0,0
14.02.2019 23:00:00 7,6 6,7 - 15 8 - - ZZW 1017,9 16 0,0
14.02.2019 22:00:00 9,2 7,7 - 31 17 - - WZW 1018,3 20 0,0
14.02.2019 21:00:00 8,7 7,8 - 26 14 - - ZW 1018,5 17 0,0
14.02.2019 20:00:00 8,9 7,9 - 26 14 50 27 ZW 1018,6 17 0,0
14.02.2019 19:00:00 8,7 8,3 - 31 17 - - ZZW 1018,5 16 0,0
14.02.2019 18:00:00 7,8 7,5 - 31 17 - - Z 1019,0 5 0,0
14.02.2019 17:00:00 7,5 6,9 - 26 14 - - Z 1019,2 2,9 0,0
14.02.2019 16:00:00 8,2 6,7 - 24 13 - - ZZW 1019,1 10 0,0
14.02.2019 15:00:00 8,6 7,2 - 26 14 - - ZW 1019,2 10 0,0
14.02.2019 14:00:00 9,1 7,5 - 26 14 - - ZW 1019,5 10 0,0
14.02.2019 13:00:00 8,9 6,9 - 21 11 - - ZZW 1019,6 9 0,0
14.02.2019 12:00:00 8,9 6,6 - 31 17 52 28 WZW 1018,8 8 0,0
14.02.2019 11:00:00 9,0 6,7 - 44 24 55 30 WZW 1018,5 8 0,0
14.02.2019 10:00:00 9,0 6,5 - 39 21 57 31 WZW 1018,1 9 0,0
14.02.2019 09:00:00 8,9 6,3 4,2 44 24 61 33 ZW 1016,9 11 0,0
14.02.2019 08:00:00 8,7 6,0 - 50 27 70 38 ZW 1015,3 12 0,0
14.02.2019 07:00:00 8,7 6,0 - 52 28 78 42 ZW 1013,8 15 0,0
14.02.2019 06:00:00 9,8 5,8 - 57 31 76 41 WZW 1013,0 21 0,0
14.02.2019 05:00:00 9,3 7,3 - 59 32 78 42 WZW 1012,6 26 0,0
14.02.2019 04:00:00 10,2 8,1 - 50 27 72 39 ZW 1012,1 19 0,0
14.02.2019 03:00:00 8,9 7,1 - 41 22 55 30 ZZW 1011,4 16 0,0
14.02.2019 02:00:00 8,8 7,2 - 41 22 57 31 ZZW 1011,3 13 0,0
14.02.2019 01:00:00 8,8 7,2 - 42 23 61 33 ZZW 1011,6 12 0,0
14.02.2019 00:00:00 8,8 7,1 - 41 22 55 30 ZZW 1011,3 13 0,0
13.02.2019 23:00:00 8,5 7,1 - 39 21 50 27 Z 1011,6 12 0,0
13.02.2019 22:00:00 8,7 7,2 - 28 15 - - Z 1012,4 13 0,0
13.02.2019 21:00:00 8,7 7,4 - 31 17 - - Z 1012,7 13 0,0
13.02.2019 20:00:00 8,8 7,5 - 34 18 52 28 ZZW 1012,2 15 0,0
13.02.2019 19:00:00 8,8 7,5 - 35 19 52 28 ZZW 1011,9 18 0,0
13.02.2019 18:00:00 9,3 8,0 - 39 21 54 29 ZW 1013,0 19 0,0
13.02.2019 17:00:00 9,3 7,9 - 42 23 54 29 ZW 1012,9 24 0,0
13.02.2019 16:00:00 8,8 8,0 - 31 17 46 25 ZZW 1013,4 15 0,0
13.02.2019 15:00:00 8,3 7,6 - 37 20 48 26 Z 1013,4 4,2 0,0
13.02.2019 14:00:00 8,7 7,2 - 39 21 52 28 Z 1013,7 5 0,0
13.02.2019 13:00:00 8,5 7,3 - 35 19 50 27 Z 1013,9 18 0,0
13.02.2019 12:00:00 7,9 7,2 - 39 21 50 27 Z 1014,1 14 0,4
13.02.2019 11:00:00 7,4 6,2 - 37 20 48 26 Z 1014,7 8 0,8
13.02.2019 10:00:00 7,6 5,5 - 26 14 - - Z 1015,3 10 0,0
13.02.2019 09:00:00 7,0 6,1 3,7 24 13 - - Z 1015,6 8 0,0
13.02.2019 08:00:00 6,4 5,7 - 26 14 - - ZZW 1015,5 6 0,0
13.02.2019 07:00:00 5,3 3,9 - 22 12 - - ZW 1015,8 6 0,0
13.02.2019 06:00:00 6,1 4,8 - 29 16 - - WZW 1016,6 7 0,0
13.02.2019 05:00:00 5,6 3,7 - 22 12 - - ZZW 1016,8 7 0,0
13.02.2019 04:00:00 7,1 4,9 - 29 16 - - WZW 1016,1 8 0,0
13.02.2019 03:00:00 7,4 4,3 - 35 19 59 32 W 1015,5 7 0,0
13.02.2019 02:00:00 7,7 3,9 - 46 25 76 41 W 1014,7 8 0,0
13.02.2019 01:00:00 7,8 2,6 - 59 32 80 43 W 1014,1 9 0,0
13.02.2019 00:00:00 8,1 4,3 - 59 32 81 44 W 1013,2 8 0,0
12.02.2019 23:00:00 8,4 4,8 - 54 29 87 47 W 1012,0 7 0,0
12.02.2019 22:00:00 8,4 4,3 - 63 34 89 48 W 1011,2 8 0,2
12.02.2019 21:00:00 7,3 3,7 - 57 31 91 49 W 1009,9 9 0,2
12.02.2019 20:00:00 8,3 4,9 - 55 30 91 49 WZW 1008,4 8 0,0
12.02.2019 19:00:00 8,4 4,7 - 55 30 81 44 WZW 1007,1 11 0,2
12.02.2019 18:00:00 9,1 6,9 - 59 32 83 45 WZW 1006,7 11 0,0

tt = temperatuur
td = dauwpunt
tt -20cm = temperatuur -20cm
ff = windsnelheid
fx = windstoten
dd = windrichting
ppp = luchtdruk
vv = zicht
rr = neerslag

Weerstations in de omgeving